Fairbury, Nebraska, United States (68352)
Lat: 40.14N, Lon: 97.18W
Wx Zone: NEZ088
Local Info
Past Weather Observations for Today

NOTE: This archive is for the closest National Weather Service station to Fairbury. Information may differ from the station used for current weather conditions.

Click here for Long-term Archive

Time Weather Temperature Dewpoint Humidity Pressure Winds Precip Visibility
15:15
Clear
86°F / 30°C 68°F / 20°C 55% 29.92 in
(1013 mb)
E 5.8 mph
(E 9 kph)
- 10SM
14:55
Clear
88°F / 31°C 68°F / 20°C 52% 29.92 in
(1013 mb)
SE 4.6 mph
(SE 7 kph)
- 10SM
14:35
Clear
86°F / 30°C 68°F / 20°C 55% 29.92 in
(1013 mb)
SE 4.6 mph
(SE 7 kph)
- 10SM
14:15
Clear
86°F / 30°C 70°F / 21°C 59% 29.92 in
(1013 mb)
SE 6.9 mph
(SE 11 kph)
- 10SM
13:55
Clear
86°F / 30°C 68°F / 20°C 55% 29.92 in
(1013 mb)
SSE 3.5 mph
(SSE 6 kph)
- 10SM
13:35
Clear
84°F / 29°C 70°F / 21°C 62% 29.95 in
(1014 mb)
SSE 3.5 mph
(SSE 6 kph)
- 10SM
13:15
Clear
82°F / 28°C 68°F / 20°C 62% 29.92 in
(1013 mb)
Calm - 10SM
12:55
Clear
84°F / 29°C 68°F / 20°C 58% 29.92 in
(1013 mb)
SSE 3.5 mph
(SSE 6 kph)
- 10SM
12:35
Clear
84°F / 29°C 68°F / 20°C 58% 29.92 in
(1013 mb)
Calm - 10SM
12:15
Clear
82°F / 28°C 68°F / 20°C 62% 29.92 in
(1013 mb)
SE 3.5 mph
(SE 6 kph)
- 10SM
11:55
Clear
82°F / 28°C 68°F / 20°C 62% 29.95 in
(1014 mb)
S 5.8 mph
(S 9 kph)
- 10SM
11:35
Clear
82°F / 28°C 68°F / 20°C 62% 29.95 in
(1014 mb)
SSE 4.6 mph
(SSE 7 kph)
- 10SM
11:15
Partly Cloudy
84°F / 29°C 70°F / 21°C 62% 29.95 in
(1014 mb)
SW 8.1 mph
(SW 13 kph)
- 10SM
10:55
Partly Cloudy
Thunder Storms
84°F / 29°C 70°F / 21°C 62% 29.95 in
(1014 mb)
S 10.4 mph
(S 17 kph)
- 10SM
10:35
Partly Cloudy
84°F / 29°C 72°F / 22°C 66% 29.95 in
(1014 mb)
SSE 8.1 mph
(SSE 13 kph)
- 10SM
10:15
Clear
82°F / 28°C 72°F / 22°C 70% 29.92 in
(1013 mb)
SE 6.9 mph
(SE 11 kph)
- 10SM
09:55
Clear
82°F / 28°C 72°F / 22°C 70% 29.92 in
(1013 mb)
SE 4.6 mph
(SE 7 kph)
- 10SM
09:35
Clear
81°F / 27°C 70°F / 21°C 70% 29.92 in
(1013 mb)
ENE 4.6 mph
(ENE 7 kph)
- 10SM
09:15
Clear
81°F / 27°C 70°F / 21°C 70% 29.92 in
(1013 mb)
ESE 6.9 mph
(ESE 11 kph)
- 10SM
08:55
Clear
79°F / 26°C 70°F / 21°C 74% 29.92 in
(1013 mb)
SE 4.6 mph
(SE 7 kph)
- 10SM
08:35
Clear
79°F / 26°C 70°F / 21°C 74% 29.92 in
(1013 mb)
SSE 6.9 mph
(SSE 11 kph)
- 10SM
08:15
Clear
Thunder Storms
79°F / 26°C 70°F / 21°C 74% 29.95 in
(1014 mb)
SE 9.2 mph
(SE 15 kph)
- 10SM
07:55
Clear
77°F / 25°C 68°F / 20°C 74% 29.92 in
(1013 mb)
SE 5.8 mph
(SE 9 kph)
- 10SM
07:35
Clear
Thunder Storms
75°F / 24°C 68°F / 20°C 78% 29.92 in
(1013 mb)
E 4.6 mph
(E 7 kph)
- 10SM
07:15
Clear
73°F / 23°C 68°F / 20°C 83% 29.92 in
(1013 mb)
Calm - 10SM
06:55
Clear
72°F / 22°C 66°F / 19°C 83% 29.92 in
(1013 mb)
ESE 3.5 mph
(ESE 6 kph)
- 10SM
06:35
Clear
70°F / 21°C 66°F / 19°C 88% 29.92 in
(1013 mb)
Calm - 10SM
06:15
Clear
70°F / 21°C 66°F / 19°C 88% 29.92 in
(1013 mb)
Calm - 10SM
05:55
Clear
70°F / 21°C 66°F / 19°C 88% 29.92 in
(1013 mb)
Calm - 10SM
05:35
Clear
70°F / 21°C 66°F / 19°C 88% 29.92 in
(1013 mb)
Calm - 10SM
05:15
Clear
70°F / 21°C 66°F / 19°C 88% 29.92 in
(1013 mb)
Calm - 10SM
04:55
Clear
70°F / 21°C 66°F / 19°C 88% 29.92 in
(1013 mb)
E 4.6 mph
(E 7 kph)
- 10SM
04:35
Clear
72°F / 22°C 66°F / 19°C 83% 29.92 in
(1013 mb)
Calm - 10SM
04:15
Clear
72°F / 22°C 66°F / 19°C 83% 29.89 in
(1012 mb)
NE 6.9 mph
(NE 11 kph)
- 10SM
03:55
Clear
70°F / 21°C 66°F / 19°C 88% 29.89 in
(1012 mb)
NE 8.1 mph
(NE 13 kph)
- 10SM
03:35
Clear
70°F / 21°C 66°F / 19°C 88% 29.89 in
(1012 mb)
Calm - 10SM
03:15
Clear
70°F / 21°C 66°F / 19°C 88% 29.89 in
(1012 mb)
Calm - 10SM
02:55
Clear
70°F / 21°C 66°F / 19°C 88% 29.89 in
(1012 mb)
Calm - 10SM
02:35
Clear
72°F / 22°C 66°F / 19°C 83% 29.89 in
(1012 mb)
Calm - 10SM
02:15
Clear
72°F / 22°C 66°F / 19°C 83% 29.86 in
(1011 mb)
Calm - 10SM
01:55
Clear
72°F / 22°C 66°F / 19°C 83% 29.89 in
(1012 mb)
Calm - 10SM
01:35
Clear
72°F / 22°C 66°F / 19°C 83% 29.86 in
(1011 mb)
Calm - 10SM
01:15
Clear
72°F / 22°C 66°F / 19°C 83% 29.86 in
(1011 mb)
Calm - 10SM
00:55
Clear
72°F / 22°C 66°F / 19°C 83% 29.89 in
(1012 mb)
Calm - 10SM
00:35
Partly Cloudy
72°F / 22°C 66°F / 19°C 83% 29.89 in
(1012 mb)
Calm - 10SM
00:15
Partly Cloudy
73°F / 23°C 64°F / 18°C 74% 29.92 in
(1013 mb)
Calm - 10SM
Time Weather Temperature Dewpoint Humidity Pressure Winds Precip Visibility


Weather for websites

WeatherForYou.com, LLC is not responsible for any damages or problems caused by this service. Current weather conditions are obtained from the closest station including government and personal stations which may have varying degrees of accuracy. Weather forecasts are derived from the NOAA NDFD. Like all things, this site belongs to Jesus Christ... He just trusts me to maintain it. If you have any questions or comments email webmaster@weatherforyou.com

Copyright © 2014, WeatherForYou.com LLC. All rights reserved.